Time,TemperatureF,DewpointF,PressureIn,WindDirection,WindDirectionDegrees,WindSpeedMPH,WindSpeedGustMPH,Humidity,HourlyPrecipIn,Conditions,Clouds,dailyrainin,SoftwareType,DateUTC
2013-03-20 00:03:00,39.0,10.9,30.21,NW,315,3.0,7.0,31,0.00,,,0.00,Weather View 32 v70,2013-03-20 06:03:00,
2013-03-20 00:08:00,38.0,12.1,30.21,NW,315,0.0,7.0,34,0.00,,,0.00,Weather View 32 v70,2013-03-20 06:08:00,
2013-03-20 00:13:00,37.0,11.9,30.22,NW,315,3.0,7.0,35,0.00,,,0.00,Weather View 32 v70,2013-03-20 06:13:00,
2013-03-20 00:18:00,37.0,12.5,30.22,NW,315,1.0,7.0,36,0.00,,,0.00,Weather View 32 v70,2013-03-20 06:18:00,
2013-03-20 00:23:00,37.0,13.1,30.22,NW,315,3.0,7.0,37,0.00,,,0.00,Weather View 32 v70,2013-03-20 06:23:00,
2013-03-20 00:28:00,37.0,12.5,30.22,NW,315,3.0,7.0,36,0.00,,,0.00,Weather View 32 v70,2013-03-20 06:28:00,
2013-03-20 00:33:00,36.0,11.6,30.22,NW,315,0.0,7.0,36,0.00,,,0.00,Weather View 32 v70,2013-03-20 06:33:00,
2013-03-20 00:38:00,36.0,12.2,30.22,NW,315,0.0,7.0,37,0.00,,,0.00,Weather View 32 v70,2013-03-20 06:38:00,
2013-03-20 00:44:00,36.0,12.8,30.22,ENE,67,5.0,6.0,38,0.00,,,0.00,Weather View 32 v70,2013-03-20 06:44:00,
2013-03-20 00:49:00,36.0,13.4,30.22,ENE,67,4.0,6.0,39,0.00,,,0.00,Weather View 32 v70,2013-03-20 06:49:00,
2013-03-20 00:54:00,35.0,12.5,30.22,ENE,67,0.0,6.0,39,0.00,,,0.00,Weather View 32 v70,2013-03-20 06:54:00,
2013-03-20 00:59:00,35.0,11.9,30.22,ENE,67,0.0,6.0,38,0.00,,,0.00,Weather View 32 v70,2013-03-20 06:59:00,
2013-03-20 01:04:00,35.0,11.9,30.22,NNE,22,0.0,6.0,38,0.00,,,0.00,Weather View 32 v70,2013-03-20 07:04:00,
2013-03-20 01:09:00,36.0,12.2,30.22,NNE,22,4.0,6.0,37,0.00,,,0.00,Weather View 32 v70,2013-03-20 07:09:00,
2013-03-20 01:14:00,36.0,12.2,30.22,NNE,22,4.0,6.0,37,0.00,,,0.00,Weather View 32 v70,2013-03-20 07:14:00,
2013-03-20 01:19:00,37.0,13.1,30.22,NNE,22,6.0,6.0,37,0.00,,,0.00,Weather View 32 v70,2013-03-20 07:19:00,
2013-03-20 01:24:00,37.0,13.1,30.22,NNE,22,6.0,6.0,37,0.00,,,0.00,Weather View 32 v70,2013-03-20 07:24:00,
2013-03-20 01:30:00,37.0,13.7,30.22,NNE,22,5.0,8.0,38,0.00,,,0.00,Weather View 32 v70,2013-03-20 07:30:00,
2013-03-20 01:35:00,36.0,14.0,30.22,NNE,22,4.0,8.0,40,0.00,,,0.00,Weather View 32 v70,2013-03-20 07:35:00,
2013-03-20 01:40:00,36.0,13.4,30.22,NNE,22,3.0,8.0,39,0.00,,,0.00,Weather View 32 v70,2013-03-20 07:40:00,
2013-03-20 01:45:00,36.0,14.0,30.22,East,90,4.0,8.0,40,0.00,,,0.00,Weather View 32 v70,2013-03-20 07:45:00,
2013-03-20 01:50:00,36.0,13.4,30.22,East,90,4.0,8.0,39,0.00,,,0.00,Weather View 32 v70,2013-03-20 07:50:00,
2013-03-20 01:55:00,35.0,13.7,30.22,East,90,0.0,8.0,41,0.00,,,0.00,Weather View 32 v70,2013-03-20 07:55:00,
2013-03-20 02:00:00,34.0,12.8,30.22,East,90,2.0,8.0,41,0.00,,,0.00,Weather View 32 v70,2013-03-20 08:00:00,
2013-03-20 02:05:00,34.0,13.3,30.22,East,90,6.0,8.0,42,0.00,,,0.00,Weather View 32 v70,2013-03-20 08:05:00,
2013-03-20 02:10:00,33.0,12.4,30.23,ENE,67,5.0,8.0,42,0.00,,,0.00,Weather View 32 v70,2013-03-20 08:10:00,
2013-03-20 02:15:00,33.0,12.4,30.23,ENE,67,6.0,8.0,42,0.00,,,0.00,Weather View 32 v70,2013-03-20 08:15:00,
2013-03-20 02:20:00,33.0,11.8,30.22,NE,45,6.0,8.0,41,0.00,,,0.00,Weather View 32 v70,2013-03-20 08:20:00,
2013-03-20 02:25:00,33.0,11.3,30.22,NE,45,3.0,9.0,40,0.00,,,0.00,Weather View 32 v70,2013-03-20 08:25:00,
2013-03-20 02:29:00,33.0,11.3,30.23,ENE,67,4.0,9.0,40,0.00,,,0.00,Weather View 32 v70,2013-03-20 08:29:00,
2013-03-20 02:35:00,33.0,11.8,30.23,ENE,67,4.0,9.0,41,0.00,,,0.00,Weather View 32 v70,2013-03-20 08:35:00,
2013-03-20 02:39:00,33.0,11.8,30.22,ENE,67,1.0,9.0,41,0.00,,,0.00,Weather View 32 v70,2013-03-20 08:39:00,
2013-03-20 02:44:00,33.0,12.4,30.22,ENE,67,3.0,9.0,42,0.00,,,0.00,Weather View 32 v70,2013-03-20 08:44:00,
2013-03-20 02:49:00,33.0,12.9,30.23,ENE,67,5.0,9.0,43,0.00,,,0.00,Weather View 32 v70,2013-03-20 08:49:00,
2013-03-20 02:54:00,32.0,12.0,30.23,NE,45,5.0,9.0,43,0.00,,,0.00,Weather View 32 v70,2013-03-20 08:54:00,
2013-03-20 02:59:00,32.0,11.5,30.23,ENE,67,7.0,9.0,42,0.00,,,0.00,Weather View 32 v70,2013-03-20 08:59:00,
2013-03-20 03:04:00,32.0,10.9,30.23,NE,45,7.0,9.0,41,0.00,,,0.00,Weather View 32 v70,2013-03-20 09:04:00,
2013-03-20 03:09:00,33.0,11.3,30.22,ENE,67,6.0,9.0,40,0.00,,,0.00,Weather View 32 v70,2013-03-20 09:09:00,
2013-03-20 03:14:00,32.0,10.9,30.22,East,90,6.0,9.0,41,0.00,,,0.00,Weather View 32 v70,2013-03-20 09:14:00,
2013-03-20 03:19:00,32.0,10.9,30.22,East,90,8.0,9.0,41,0.00,,,0.00,Weather View 32 v70,2013-03-20 09:19:00,
2013-03-20 03:24:00,32.0,11.5,30.22,East,90,8.0,9.0,42,0.00,,,0.00,Weather View 32 v70,2013-03-20 09:24:00,
2013-03-20 03:29:00,32.0,11.5,30.23,East,90,7.0,9.0,42,0.00,,,0.00,Weather View 32 v70,2013-03-20 09:29:00,
2013-03-20 03:34:00,31.0,11.1,30.23,East,90,9.0,12.0,43,0.00,,,0.00,Weather View 32 v70,2013-03-20 09:34:00,
2013-03-20 03:39:00,31.0,11.6,30.22,East,90,9.0,13.0,44,0.00,,,0.00,Weather View 32 v70,2013-03-20 09:39:00,
2013-03-20 03:44:00,31.0,12.1,30.22,East,90,9.0,13.0,45,0.00,,,0.00,Weather View 32 v70,2013-03-20 09:44:00,
2013-03-20 03:49:00,31.0,12.1,30.22,East,90,8.0,13.0,45,0.00,,,0.00,Weather View 32 v70,2013-03-20 09:49:00,
2013-03-20 03:54:00,31.0,12.1,30.22,ENE,67,10.0,13.0,45,0.00,,,0.00,Weather View 32 v70,2013-03-20 09:54:00,
2013-03-20 03:59:00,31.0,12.1,30.22,East,90,8.0,13.0,45,0.00,,,0.00,Weather View 32 v70,2013-03-20 09:59:00,
2013-03-20 04:04:00,30.0,11.7,30.22,ENE,67,5.0,13.0,46,0.00,,,0.00,Weather View 32 v70,2013-03-20 10:04:00,
2013-03-20 04:09:00,30.0,11.7,30.22,East,90,7.0,13.0,46,0.00,,,0.00,Weather View 32 v70,2013-03-20 10:09:00,
2013-03-20 04:14:00,30.0,11.7,30.22,ENE,67,7.0,13.0,46,0.00,,,0.00,Weather View 32 v70,2013-03-20 10:14:00,
2013-03-20 04:19:00,30.0,12.2,30.22,ENE,67,6.0,13.0,47,0.00,,,0.00,Weather View 32 v70,2013-03-20 10:19:00,
2013-03-20 04:24:00,30.0,12.2,30.22,ENE,67,5.0,13.0,47,0.00,,,0.00,Weather View 32 v70,2013-03-20 10:24:00,
2013-03-20 04:29:00,30.0,12.2,30.22,ENE,67,7.0,13.0,47,0.00,,,0.00,Weather View 32 v70,2013-03-20 10:29:00,
2013-03-20 04:34:00,30.0,12.2,30.22,ENE,67,6.0,13.0,47,0.00,,,0.00,Weather View 32 v70,2013-03-20 10:34:00,
2013-03-20 04:39:00,30.0,12.2,30.22,ENE,67,5.0,12.0,47,0.00,,,0.00,Weather View 32 v70,2013-03-20 10:39:00,
2013-03-20 04:44:00,29.0,11.8,30.22,ENE,67,4.0,12.0,48,0.00,,,0.00,Weather View 32 v70,2013-03-20 10:44:00,
2013-03-20 04:49:00,29.0,11.8,30.24,NE,45,5.0,11.0,48,0.00,,,0.00,Weather View 32 v70,2013-03-20 10:49:00,
2013-03-20 04:54:00,29.0,12.2,30.24,NE,45,6.0,11.0,49,0.00,,,0.00,Weather View 32 v70,2013-03-20 10:54:00,
2013-03-20 04:59:00,30.0,12.7,30.24,NE,45,6.0,11.0,48,0.00,,,0.00,Weather View 32 v70,2013-03-20 10:59:00,
2013-03-20 05:04:00,30.0,12.2,30.24,NE,45,6.0,11.0,47,0.00,,,0.00,Weather View 32 v70,2013-03-20 11:04:00,
2013-03-20 05:09:00,30.0,11.7,30.24,NE,45,5.0,11.0,46,0.00,,,0.00,Weather View 32 v70,2013-03-20 11:09:00,
2013-03-20 05:14:00,30.0,12.2,30.24,NE,45,5.0,10.0,47,0.00,,,0.00,Weather View 32 v70,2013-03-20 11:14:00,
2013-03-20 05:19:00,30.0,11.7,30.24,ENE,67,6.0,9.0,46,0.00,,,0.00,Weather View 32 v70,2013-03-20 11:19:00,
2013-03-20 05:25:00,30.0,12.2,30.24,ENE,67,5.0,9.0,47,0.00,,,0.00,Weather View 32 v70,2013-03-20 11:25:00,
2013-03-20 05:30:00,30.0,12.2,30.24,ENE,67,7.0,9.0,47,0.00,,,0.00,Weather View 32 v70,2013-03-20 11:30:00,
2013-03-20 05:35:00,30.0,11.7,30.24,ENE,67,7.0,8.0,46,0.00,,,0.00,Weather View 32 v70,2013-03-20 11:35:00,
2013-03-20 05:40:00,30.0,12.2,30.24,East,90,5.0,8.0,47,0.00,,,0.00,Weather View 32 v70,2013-03-20 11:40:00,
2013-03-20 05:45:00,29.0,11.3,30.24,East,90,8.0,9.0,47,0.00,,,0.00,Weather View 32 v70,2013-03-20 11:45:00,
2013-03-20 05:50:00,30.0,12.7,30.24,East,90,6.0,9.0,48,0.00,,,0.00,Weather View 32 v70,2013-03-20 11:50:00,
2013-03-20 05:55:00,29.0,12.2,30.24,East,90,7.0,9.0,49,0.00,,,0.00,Weather View 32 v70,2013-03-20 11:55:00,
2013-03-20 06:00:00,29.0,12.2,30.25,ENE,67,6.0,9.0,49,0.00,,,0.00,Weather View 32 v70,2013-03-20 12:00:00,
2013-03-20 06:05:00,29.0,12.2,30.25,ENE,67,7.0,10.0,49,0.00,,,0.00,Weather View 32 v70,2013-03-20 12:05:00,
2013-03-20 06:10:00,29.0,11.8,30.25,East,90,6.0,10.0,48,0.00,,,0.00,Weather View 32 v70,2013-03-20 12:10:00,
2013-03-20 06:15:00,29.0,12.7,30.25,ENE,67,7.0,10.0,50,0.00,,,0.00,Weather View 32 v70,2013-03-20 12:15:00,
2013-03-20 06:20:00,29.0,12.2,30.25,East,90,7.0,10.0,49,0.00,,,0.00,Weather View 32 v70,2013-03-20 12:20:00,
2013-03-20 06:25:00,29.0,12.2,30.25,ENE,67,6.0,10.0,49,0.00,,,0.00,Weather View 32 v70,2013-03-20 12:25:00,
2013-03-20 06:30:00,29.0,11.8,30.25,ENE,67,6.0,10.0,48,0.00,,,0.00,Weather View 32 v70,2013-03-20 12:30:00,
2013-03-20 06:35:00,29.0,12.2,30.25,ENE,67,6.0,10.0,49,0.00,,,0.00,Weather View 32 v70,2013-03-20 12:35:00,
2013-03-20 06:40:00,29.0,12.7,30.26,ENE,67,3.0,10.0,50,0.00,,,0.00,Weather View 32 v70,2013-03-20 12:40:00,
2013-03-20 06:45:00,29.0,12.7,30.26,ENE,67,6.0,10.0,50,0.00,,,0.00,Weather View 32 v70,2013-03-20 12:45:00,
2013-03-20 06:50:00,29.0,12.7,30.25,ENE,67,8.0,10.0,50,0.00,,,0.00,Weather View 32 v70,2013-03-20 12:50:00,
2013-03-20 06:55:00,29.0,12.7,30.25,ENE,67,5.0,10.0,50,0.00,,,0.00,Weather View 32 v70,2013-03-20 12:55:00,
2013-03-20 07:00:00,29.0,12.7,30.25,ENE,67,5.0,10.0,50,0.00,,,0.00,Weather View 32 v70,2013-03-20 13:00:00,
2013-03-20 07:05:00,29.0,13.6,30.25,ENE,67,5.0,10.0,52,0.00,,,0.00,Weather View 32 v70,2013-03-20 13:05:00,
2013-03-20 07:10:00,29.0,13.6,30.25,East,90,7.0,10.0,52,0.00,,,0.00,Weather View 32 v70,2013-03-20 13:10:00,
2013-03-20 07:15:00,28.0,13.1,30.25,ENE,67,7.0,10.0,53,0.00,,,0.00,Weather View 32 v70,2013-03-20 13:15:00,
2013-03-20 07:20:00,28.0,12.6,30.25,ENE,67,5.0,10.0,52,0.00,,,0.00,Weather View 32 v70,2013-03-20 13:20:00,
2013-03-20 07:25:00,28.0,13.1,30.25,East,90,5.0,9.0,53,0.00,,,0.00,Weather View 32 v70,2013-03-20 13:25:00,
2013-03-20 07:30:00,28.0,12.6,30.26,East,90,3.0,9.0,52,0.00,,,0.00,Weather View 32 v70,2013-03-20 13:30:00,
2013-03-20 07:35:00,28.0,13.1,30.26,East,90,5.0,9.0,53,0.00,,,0.00,Weather View 32 v70,2013-03-20 13:35:00,
2013-03-20 07:40:00,29.0,13.6,30.25,East,90,4.0,9.0,52,0.00,,,0.00,Weather View 32 v70,2013-03-20 13:40:00,
2013-03-20 07:45:00,29.0,12.7,30.25,East,90,6.0,9.0,50,0.00,,,0.00,Weather View 32 v70,2013-03-20 13:45:00,
2013-03-20 07:50:00,30.0,13.1,30.25,East,90,6.0,9.0,49,0.00,,,0.00,Weather View 32 v70,2013-03-20 13:50:00,
2013-03-20 07:55:00,30.0,12.7,30.25,East,90,7.0,9.0,48,0.00,,,0.00,Weather View 32 v70,2013-03-20 13:55:00,
2013-03-20 08:00:00,31.0,13.1,30.24,East,90,8.0,9.0,47,0.00,,,0.00,Weather View 32 v70,2013-03-20 14:00:00,
2013-03-20 08:05:00,31.0,12.1,30.24,East,90,5.0,9.0,45,0.00,,,0.00,Weather View 32 v70,2013-03-20 14:05:00,
2013-03-20 08:10:00,32.0,11.5,30.25,East,90,6.0,9.0,42,0.00,,,0.00,Weather View 32 v70,2013-03-20 14:10:00,
2013-03-20 08:15:00,33.0,12.4,30.25,East,90,7.0,9.0,42,0.00,,,0.00,Weather View 32 v70,2013-03-20 14:15:00,
2013-03-20 08:20:00,33.0,11.8,30.25,East,90,5.0,9.0,41,0.00,,,0.00,Weather View 32 v70,2013-03-20 14:20:00,
2013-03-20 08:25:00,33.0,11.8,30.25,East,90,7.0,10.0,41,0.00,,,0.00,Weather View 32 v70,2013-03-20 14:25:00,
2013-03-20 08:30:00,34.0,12.8,30.25,ENE,67,7.0,10.0,41,0.00,,,0.00,Weather View 32 v70,2013-03-20 14:30:00,
2013-03-20 08:35:00,34.0,12.2,30.25,East,90,8.0,10.0,40,0.00,,,0.00,Weather View 32 v70,2013-03-20 14:35:00,
2013-03-20 08:40:00,35.0,12.5,30.24,East,90,10.0,11.0,39,0.00,,,0.00,Weather View 32 v70,2013-03-20 14:40:00,
2013-03-20 08:45:00,35.0,11.9,30.24,East,90,11.0,12.0,38,0.00,,,0.00,Weather View 32 v70,2013-03-20 14:45:00,
2013-03-20 08:50:00,36.0,12.2,30.24,East,90,11.0,13.0,37,0.00,,,0.00,Weather View 32 v70,2013-03-20 14:50:00,
2013-03-20 08:56:00,36.0,12.2,30.24,East,90,9.0,13.0,37,0.00,,,0.00,Weather View 32 v70,2013-03-20 14:56:00,
2013-03-20 09:01:00,37.0,13.1,30.24,ESE,112,9.0,13.0,37,0.00,,,0.00,Weather View 32 v70,2013-03-20 15:01:00,
2013-03-20 09:06:00,37.0,12.5,30.24,East,90,7.0,13.0,36,0.00,,,0.00,Weather View 32 v70,2013-03-20 15:06:00,
2013-03-20 09:12:00,38.0,12.7,30.24,ESE,112,3.0,13.0,35,0.00,,,0.00,Weather View 32 v70,2013-03-20 15:12:00,
2013-03-20 09:17:00,38.0,13.4,30.24,SE,135,6.0,13.0,36,0.00,,,0.00,Weather View 32 v70,2013-03-20 15:17:00,
2013-03-20 09:23:00,39.0,14.3,30.23,SE,135,4.0,13.0,36,0.00,,,0.00,Weather View 32 v70,2013-03-20 15:23:00,
2013-03-20 09:28:00,39.0,13.6,30.23,East,90,8.0,13.0,35,0.00,,,0.00,Weather View 32 v70,2013-03-20 15:28:00,
2013-03-20 09:33:00,40.0,13.9,30.23,East,90,5.0,13.0,34,0.00,,,0.00,Weather View 32 v70,2013-03-20 15:33:00,
2013-03-20 09:38:00,40.0,13.9,30.23,East,90,5.0,13.0,34,0.00,,,0.00,Weather View 32 v70,2013-03-20 15:38:00,
2013-03-20 09:43:00,40.0,14.5,30.22,SE,135,5.0,13.0,35,0.00,,,0.00,Weather View 32 v70,2013-03-20 15:43:00,
2013-03-20 09:48:00,40.0,13.9,30.22,East,90,7.0,13.0,34,0.00,,,0.00,Weather View 32 v70,2013-03-20 15:48:00,
2013-03-20 09:54:00,41.0,14.1,30.22,SE,135,5.0,10.0,33,0.00,,,0.00,Weather View 32 v70,2013-03-20 15:54:00,
2013-03-20 09:59:00,41.0,13.4,30.22,ESE,112,6.0,10.0,32,0.00,,,0.00,Weather View 32 v70,2013-03-20 15:59:00,
2013-03-20 10:04:00,42.0,13.5,30.22,ESE,112,5.0,10.0,31,0.00,,,0.00,Weather View 32 v70,2013-03-20 16:04:00,
2013-03-20 10:09:00,43.0,14.4,30.22,East,90,6.0,9.0,31,0.00,,,0.00,Weather View 32 v70,2013-03-20 16:09:00,
2013-03-20 10:14:00,43.0,13.6,30.21,East,90,10.0,10.0,30,0.00,,,0.00,Weather View 32 v70,2013-03-20 16:14:00,
2013-03-20 10:19:00,44.0,14.5,30.21,East,90,8.0,10.0,30,0.00,,,0.00,Weather View 32 v70,2013-03-20 16:19:00,
2013-03-20 10:24:00,45.0,14.6,30.20,East,90,11.0,11.0,29,0.00,,,0.00,Weather View 32 v70,2013-03-20 16:24:00,
2013-03-20 10:29:00,45.0,14.6,30.20,East,90,8.0,14.0,29,0.00,,,0.00,Weather View 32 v70,2013-03-20 16:29:00,
2013-03-20 10:34:00,45.0,14.6,30.19,ENE,67,6.0,14.0,29,0.00,,,0.00,Weather View 32 v70,2013-03-20 16:34:00,
2013-03-20 10:39:00,46.0,14.7,30.19,ENE,67,10.0,14.0,28,0.00,,,0.00,Weather View 32 v70,2013-03-20 16:39:00,
2013-03-20 10:44:00,46.0,14.7,30.19,ENE,67,8.0,14.0,28,0.00,,,0.00,Weather View 32 v70,2013-03-20 16:44:00,
2013-03-20 10:49:00,47.0,14.7,30.19,East,90,10.0,14.0,27,0.00,,,0.00,Weather View 32 v70,2013-03-20 16:49:00,
2013-03-20 10:54:00,48.0,15.6,30.18,SE,135,6.0,14.0,27,0.00,,,0.00,Weather View 32 v70,2013-03-20 16:54:00,
2013-03-20 10:59:00,49.0,14.6,30.18,East,90,6.0,14.0,25,0.00,,,0.00,Weather View 32 v70,2013-03-20 16:59:00,
2013-03-20 11:05:00,49.0,14.6,30.18,East,90,10.0,14.0,25,0.00,,,0.00,Weather View 32 v70,2013-03-20 17:05:00,
2013-03-20 11:10:00,50.0,14.6,30.16,ENE,67,10.0,14.0,24,0.00,,,0.00,Weather View 32 v70,2013-03-20 17:10:00,
2013-03-20 11:15:00,50.0,14.6,30.16,East,90,7.0,14.0,24,0.00,,,0.00,Weather View 32 v70,2013-03-20 17:15:00,
2013-03-20 11:20:00,50.0,14.6,30.16,ESE,112,7.0,15.0,24,0.00,,,0.00,Weather View 32 v70,2013-03-20 17:20:00,
2013-03-20 11:25:00,51.0,15.4,30.16,East,90,8.0,15.0,24,0.00,,,0.00,Weather View 32 v70,2013-03-20 17:25:00,
2013-03-20 11:30:00,51.0,15.4,30.16,East,90,10.0,15.0,24,0.00,,,0.00,Weather View 32 v70,2013-03-20 17:30:00,
2013-03-20 11:35:00,51.0,15.4,30.16,ENE,67,7.0,15.0,24,0.00,,,0.00,Weather View 32 v70,2013-03-20 17:35:00,
2013-03-20 11:40:00,52.0,15.3,30.15,East,90,7.0,15.0,23,0.00,,,0.00,Weather View 32 v70,2013-03-20 17:40:00,
2013-03-20 11:45:00,52.0,16.3,30.15,East,90,6.0,15.0,24,0.00,,,0.00,Weather View 32 v70,2013-03-20 17:45:00,
2013-03-20 11:50:00,53.0,16.1,30.14,ESE,112,6.0,15.0,23,0.00,,,0.00,Weather View 32 v70,2013-03-20 17:50:00,
2013-03-20 11:55:00,53.0,16.1,30.14,East,90,8.0,15.0,23,0.00,,,0.00,Weather View 32 v70,2013-03-20 17:55:00,
2013-03-20 12:00:00,54.0,15.9,30.14,East,90,10.0,15.0,22,0.00,,,0.00,Weather View 32 v70,2013-03-20 18:00:00,
2013-03-20 12:05:00,54.0,15.9,30.14,East,90,5.0,15.0,22,0.00,,,0.00,Weather View 32 v70,2013-03-20 18:05:00,
2013-03-20 12:10:00,54.0,14.9,30.13,ENE,67,4.0,15.0,21,0.00,,,0.00,Weather View 32 v70,2013-03-20 18:10:00,
2013-03-20 12:15:00,55.0,15.7,30.13,East,90,9.0,15.0,21,0.00,,,0.00,Weather View 32 v70,2013-03-20 18:15:00,
2013-03-20 12:20:00,55.0,15.7,30.12,SE,135,6.0,14.0,21,0.00,,,0.00,Weather View 32 v70,2013-03-20 18:20:00,
2013-03-20 12:25:00,56.0,15.4,30.12,ESE,112,4.0,14.0,20,0.00,,,0.00,Weather View 32 v70,2013-03-20 18:25:00,
2013-03-20 12:30:00,57.0,15.1,30.12,South,180,5.0,14.0,19,0.00,,,0.00,Weather View 32 v70,2013-03-20 18:30:00,
2013-03-20 12:35:00,57.0,15.1,30.12,East,90,9.0,14.0,19,0.00,,,0.00,Weather View 32 v70,2013-03-20 18:35:00,
2013-03-20 12:40:00,57.0,15.1,30.11,East,90,8.0,14.0,19,0.00,,,0.00,Weather View 32 v70,2013-03-20 18:40:00,
2013-03-20 12:45:00,57.0,15.1,30.11,SSE,157,3.0,14.0,19,0.00,,,0.00,Weather View 32 v70,2013-03-20 18:45:00,
2013-03-20 12:50:00,57.0,15.1,30.10,ESE,112,6.0,14.0,19,0.00,,,0.00,Weather View 32 v70,2013-03-20 18:50:00,
2013-03-20 12:55:00,57.0,15.1,30.10,NE,45,1.0,14.0,19,0.00,,,0.00,Weather View 32 v70,2013-03-20 18:55:00,
2013-03-20 13:00:00,58.0,15.9,30.10,SE,135,5.0,14.0,19,0.00,,,0.00,Weather View 32 v70,2013-03-20 19:00:00,
2013-03-20 13:05:00,57.0,16.2,30.10,ENE,67,9.0,14.0,20,0.00,,,0.00,Weather View 32 v70,2013-03-20 19:05:00,
2013-03-20 13:10:00,58.0,17.1,30.10,East,90,4.0,14.0,20,0.00,,,0.00,Weather View 32 v70,2013-03-20 19:10:00,
2013-03-20 13:15:00,57.0,15.1,30.10,NE,45,3.0,14.0,19,0.00,,,0.00,Weather View 32 v70,2013-03-20 19:15:00,
2013-03-20 13:20:00,57.0,16.2,30.10,East,90,4.0,11.0,20,0.00,,,0.00,Weather View 32 v70,2013-03-20 19:20:00,
2013-03-20 13:26:00,57.0,16.2,30.10,NE,45,3.0,11.0,20,0.00,,,0.00,Weather View 32 v70,2013-03-20 19:26:00,
2013-03-20 13:31:00,57.0,16.2,30.09,NE,45,5.0,11.0,20,0.00,,,0.00,Weather View 32 v70,2013-03-20 19:31:00,
2013-03-20 13:36:00,57.0,16.2,30.09,NE,45,1.0,11.0,20,0.00,,,0.00,Weather View 32 v70,2013-03-20 19:36:00,
2013-03-20 13:41:00,57.0,16.2,30.08,East,90,1.0,11.0,20,0.00,,,0.00,Weather View 32 v70,2013-03-20 19:41:00,
2013-03-20 13:46:00,58.0,15.9,30.08,NE,45,2.0,11.0,19,0.00,,,0.00,Weather View 32 v70,2013-03-20 19:46:00,
2013-03-20 13:52:00,58.0,15.9,30.08,North,360,6.0,11.0,19,0.00,,,0.00,Weather View 32 v70,2013-03-20 19:52:00,
2013-03-20 13:57:00,57.0,16.2,30.08,NE,45,7.0,10.0,20,0.00,,,0.00,Weather View 32 v70,2013-03-20 19:57:00,
2013-03-20 14:03:00,58.0,17.1,30.07,ENE,67,4.0,10.0,20,0.00,,,0.00,Weather View 32 v70,2013-03-20 20:03:00,
2013-03-20 14:08:00,57.0,16.2,30.07,NE,45,4.0,9.0,20,0.00,,,0.00,Weather View 32 v70,2013-03-20 20:08:00,
2013-03-20 14:13:00,58.0,17.1,30.06,NE,45,2.0,9.0,20,0.00,,,0.00,Weather View 32 v70,2013-03-20 20:13:00,
2013-03-20 14:18:00,58.0,17.1,30.06,NE,45,1.0,9.0,20,0.00,,,0.00,Weather View 32 v70,2013-03-20 20:18:00,
2013-03-20 14:23:00,58.0,15.9,30.06,North,360,4.0,7.0,19,0.00,,,0.00,Weather View 32 v70,2013-03-20 20:23:00,
2013-03-20 14:28:00,58.0,17.1,30.06,East,90,4.0,7.0,20,0.00,,,0.00,Weather View 32 v70,2013-03-20 20:28:00,
2013-03-20 14:33:00,58.0,15.9,30.05,East,90,2.0,8.0,19,0.00,,,0.00,Weather View 32 v70,2013-03-20 20:33:00,
2013-03-20 14:38:00,59.0,16.7,30.05,NE,45,3.0,8.0,19,0.00,,,0.00,Weather View 32 v70,2013-03-20 20:38:00,
2013-03-20 14:43:00,59.0,16.7,30.04,NNE,22,4.0,8.0,19,0.00,,,0.00,Weather View 32 v70,2013-03-20 20:43:00,
2013-03-20 14:48:00,59.0,16.7,30.04,NE,45,3.0,8.0,19,0.00,,,0.00,Weather View 32 v70,2013-03-20 20:48:00,
2013-03-20 14:53:00,59.0,15.5,30.04,NE,45,3.0,8.0,18,0.00,,,0.00,Weather View 32 v70,2013-03-20 20:53:00,
2013-03-20 14:58:00,60.0,16.3,30.04,East,90,6.0,9.0,18,0.00,,,0.00,Weather View 32 v70,2013-03-20 20:58:00,
2013-03-20 15:03:00,60.0,16.3,30.02,NNE,22,0.0,9.0,18,0.00,,,0.00,Weather View 32 v70,2013-03-20 21:03:00,
2013-03-20 15:08:00,60.0,16.3,30.02,South,180,8.0,9.0,18,0.00,,,0.00,Weather View 32 v70,2013-03-20 21:08:00,
2013-03-20 15:13:00,60.0,16.3,30.02,WSW,247,4.0,9.0,18,0.00,,,0.00,Weather View 32 v70,2013-03-20 21:13:00,
2013-03-20 15:18:00,60.0,16.3,30.02,WSW,247,4.0,9.0,18,0.00,,,0.00,Weather View 32 v70,2013-03-20 21:18:00,
2013-03-20 15:23:00,61.0,15.8,30.02,South,180,3.0,9.0,17,0.00,,,0.00,Weather View 32 v70,2013-03-20 21:23:00,
2013-03-20 15:29:00,61.0,15.8,30.02,SSE,157,0.0,9.0,17,0.00,,,0.00,Weather View 32 v70,2013-03-20 21:29:00,
2013-03-20 15:34:00,61.0,15.8,30.01,NE,45,5.0,9.0,17,0.00,,,0.00,Weather View 32 v70,2013-03-20 21:34:00,
2013-03-20 15:39:00,61.0,18.4,30.00,NNE,22,1.0,9.0,19,0.00,,,0.00,Weather View 32 v70,2013-03-20 21:39:00,
2013-03-20 15:45:00,61.0,18.4,30.00,North,360,5.0,9.0,19,0.00,,,0.00,Weather View 32 v70,2013-03-20 21:45:00,
2013-03-20 15:50:00,62.0,19.2,30.00,SW,225,4.0,9.0,19,0.00,,,0.00,Weather View 32 v70,2013-03-20 21:50:00,
2013-03-20 15:55:00,61.0,18.4,30.00,North,360,4.0,9.0,19,0.00,,,0.00,Weather View 32 v70,2013-03-20 21:55:00,
2013-03-20 16:00:00,62.0,19.2,29.99,NW,315,5.0,9.0,19,0.00,,,0.00,Weather View 32 v70,2013-03-20 22:00:00,
2013-03-20 16:05:00,61.0,18.4,29.99,NNE,22,5.0,9.0,19,0.00,,,0.00,Weather View 32 v70,2013-03-20 22:05:00,
2013-03-20 16:10:00,60.0,17.5,29.99,North,360,5.0,9.0,19,0.00,,,0.00,Weather View 32 v70,2013-03-20 22:10:00,
2013-03-20 16:15:00,59.0,19.0,29.99,NNE,22,3.0,10.0,21,0.00,,,0.00,Weather View 32 v70,2013-03-20 22:15:00,
2013-03-20 16:19:00,59.0,19.0,29.99,North,360,6.0,11.0,21,0.00,,,0.00,Weather View 32 v70,2013-03-20 22:19:00,
2013-03-20 16:25:00,59.0,20.1,29.99,NW,315,6.0,11.0,22,0.00,,,0.00,Weather View 32 v70,2013-03-20 22:25:00,
2013-03-20 16:29:00,59.0,19.0,30.00,NNW,337,5.0,11.0,21,0.00,,,0.00,Weather View 32 v70,2013-03-20 22:29:00,
2013-03-20 16:34:00,59.0,19.0,30.00,NNE,22,2.0,11.0,21,0.00,,,0.00,Weather View 32 v70,2013-03-20 22:34:00,
2013-03-20 16:39:00,59.0,19.0,29.99,North,360,6.0,11.0,21,0.00,,,0.00,Weather View 32 v70,2013-03-20 22:39:00,
2013-03-20 16:44:00,59.0,19.0,29.99,North,360,4.0,11.0,21,0.00,,,0.00,Weather View 32 v70,2013-03-20 22:44:00,
2013-03-20 16:49:00,59.0,19.0,29.99,NW,315,5.0,11.0,21,0.00,,,0.00,Weather View 32 v70,2013-03-20 22:49:00,
2013-03-20 16:54:00,59.0,19.0,29.99,NNE,22,8.0,11.0,21,0.00,,,0.00,Weather View 32 v70,2013-03-20 22:54:00,
2013-03-20 16:59:00,59.0,19.0,29.98,North,360,6.0,11.0,21,0.00,,,0.00,Weather View 32 v70,2013-03-20 22:59:00,
2013-03-20 17:04:00,58.0,18.2,29.98,NNE,22,7.0,11.0,21,0.00,,,0.00,Weather View 32 v70,2013-03-20 23:04:00,
2013-03-20 17:09:00,58.0,18.2,29.98,NNE,22,8.0,11.0,21,0.00,,,0.00,Weather View 32 v70,2013-03-20 23:09:00,
2013-03-20 17:14:00,58.0,19.3,29.98,North,360,6.0,11.0,22,0.00,,,0.00,Weather View 32 v70,2013-03-20 23:14:00,
2013-03-20 17:20:00,58.0,18.2,29.98,NE,45,7.0,11.0,21,0.00,,,0.00,Weather View 32 v70,2013-03-20 23:20:00,
2013-03-20 17:25:00,58.0,19.3,29.98,NNE,22,6.0,11.0,22,0.00,,,0.00,Weather View 32 v70,2013-03-20 23:25:00,
2013-03-20 17:30:00,58.0,18.2,29.98,NE,45,3.0,11.0,21,0.00,,,0.00,Weather View 32 v70,2013-03-20 23:30:00,
2013-03-20 17:35:00,58.0,19.3,29.98,North,360,8.0,11.0,22,0.00,,,0.00,Weather View 32 v70,2013-03-20 23:35:00,
2013-03-20 17:40:00,58.0,19.3,29.98,NNE,22,5.0,11.0,22,0.00,,,0.00,Weather View 32 v70,2013-03-20 23:40:00,
2013-03-20 17:45:00,58.0,19.3,29.98,NW,315,5.0,11.0,22,0.00,,,0.00,Weather View 32 v70,2013-03-20 23:45:00,
2013-03-20 17:50:00,58.0,20.3,29.98,NNE,22,4.0,11.0,23,0.00,,,0.00,Weather View 32 v70,2013-03-20 23:50:00,
2013-03-20 17:55:00,58.0,20.3,29.98,NW,315,4.0,11.0,23,0.00,,,0.00,Weather View 32 v70,2013-03-20 23:55:00,
2013-03-20 18:01:00,58.0,20.3,29.97,NW,315,6.0,11.0,23,0.00,,,0.00,Weather View 32 v70,2013-03-21 00:01:00,
2013-03-20 18:06:00,57.0,19.5,29.97,North,360,6.0,11.0,23,0.00,,,0.00,Weather View 32 v70,2013-03-21 00:06:00,
2013-03-20 18:11:00,57.0,19.5,29.98,NW,315,4.0,11.0,23,0.00,,,0.00,Weather View 32 v70,2013-03-21 00:11:00,
2013-03-20 18:17:00,57.0,19.5,29.98,NNE,22,9.0,11.0,23,0.00,,,0.00,Weather View 32 v70,2013-03-21 00:17:00,
2013-03-20 18:22:00,57.0,19.5,29.98,West,270,6.0,11.0,23,0.00,,,0.00,Weather View 32 v70,2013-03-21 00:22:00,
2013-03-20 18:27:00,57.0,19.5,29.98,North,360,7.0,11.0,23,0.00,,,0.00,Weather View 32 v70,2013-03-21 00:27:00,
2013-03-20 18:32:00,57.0,19.5,29.98,NW,315,3.0,11.0,23,0.00,,,0.00,Weather View 32 v70,2013-03-21 00:32:00,
2013-03-20 18:37:00,57.0,19.5,29.98,North,360,5.0,11.0,23,0.00,,,0.00,Weather View 32 v70,2013-03-21 00:37:00,
2013-03-20 18:42:00,57.0,19.5,29.97,NNE,22,5.0,11.0,23,0.00,,,0.00,Weather View 32 v70,2013-03-21 00:42:00,
2013-03-20 18:47:00,57.0,20.5,29.97,North,360,8.0,11.0,24,0.00,,,0.00,Weather View 32 v70,2013-03-21 00:47:00,
2013-03-20 18:52:00,57.0,20.5,29.97,NE,45,9.0,11.0,24,0.00,,,0.00,Weather View 32 v70,2013-03-21 00:52:00,
2013-03-20 18:57:00,56.0,20.6,29.97,NE,45,6.0,11.0,25,0.00,,,0.00,Weather View 32 v70,2013-03-21 00:57:00,
2013-03-20 19:02:00,56.0,21.5,29.97,NE,45,7.0,11.0,26,0.00,,,0.00,Weather View 32 v70,2013-03-21 01:02:00,
2013-03-20 19:07:00,56.0,21.5,29.97,NE,45,5.0,11.0,26,0.00,,,0.00,Weather View 32 v70,2013-03-21 01:07:00,
2013-03-20 19:12:00,56.0,21.5,29.97,NE,45,4.0,11.0,26,0.00,,,0.00,Weather View 32 v70,2013-03-21 01:12:00,
2013-03-20 19:17:00,56.0,22.4,29.97,NE,45,4.0,11.0,27,0.00,,,0.00,Weather View 32 v70,2013-03-21 01:17:00,
2013-03-20 19:22:00,56.0,22.4,29.98,NE,45,5.0,11.0,27,0.00,,,0.00,Weather View 32 v70,2013-03-21 01:22:00,
2013-03-20 19:27:00,55.0,21.6,29.98,NE,45,3.0,10.0,27,0.00,,,0.00,Weather View 32 v70,2013-03-21 01:27:00,
2013-03-20 19:32:00,55.0,21.6,29.98,NE,45,4.0,10.0,27,0.00,,,0.00,Weather View 32 v70,2013-03-21 01:32:00,
2013-03-20 19:37:00,55.0,22.4,29.98,ENE,67,5.0,10.0,28,0.00,,,0.00,Weather View 32 v70,2013-03-21 01:37:00,
2013-03-20 19:42:00,55.0,22.4,29.97,East,90,4.0,10.0,28,0.00,,,0.00,Weather View 32 v70,2013-03-21 01:42:00,
2013-03-20 19:47:00,55.0,22.4,29.97,SE,135,4.0,10.0,28,0.00,,,0.00,Weather View 32 v70,2013-03-21 01:47:00,
2013-03-20 19:52:00,55.0,22.4,29.97,SE,135,4.0,25.0,28,0.00,,,0.00,Weather View 32 v70,2013-03-21 01:52:00,
2013-03-20 19:57:00,55.0,22.4,29.97,South,180,16.0,25.0,28,0.00,,,0.00,Weather View 32 v70,2013-03-21 01:57:00,
2013-03-20 20:03:00,55.0,23.3,29.97,SSW,202,9.0,25.0,29,0.00,,,0.00,Weather View 32 v70,2013-03-21 02:03:00,
2013-03-20 20:08:00,55.0,23.3,29.97,NW,315,6.0,25.0,29,0.00,,,0.00,Weather View 32 v70,2013-03-21 02:08:00,
2013-03-20 20:13:00,55.0,23.3,29.97,West,270,5.0,25.0,29,0.00,,,0.00,Weather View 32 v70,2013-03-21 02:13:00,
2013-03-20 20:18:00,55.0,23.3,29.97,West,270,4.0,25.0,29,0.00,,,0.00,Weather View 32 v70,2013-03-21 02:18:00,
2013-03-20 20:23:00,55.0,23.3,29.97,WNW,292,4.0,25.0,29,0.00,,,0.00,Weather View 32 v70,2013-03-21 02:23:00,
2013-03-20 20:28:00,55.0,24.1,29.97,SW,225,3.0,25.0,30,0.00,,,0.00,Weather View 32 v70,2013-03-21 02:28:00,
2013-03-20 20:33:00,55.0,23.3,29.97,South,180,4.0,25.0,29,0.00,,,0.00,Weather View 32 v70,2013-03-21 02:33:00,
2013-03-20 20:38:00,54.0,22.4,29.97,SSE,157,7.0,25.0,29,0.00,,,0.00,Weather View 32 v70,2013-03-21 02:38:00,
2013-03-20 20:43:00,54.0,23.2,29.97,SE,135,4.0,25.0,30,0.00,,,0.00,Weather View 32 v70,2013-03-21 02:43:00,
2013-03-20 20:48:00,54.0,24.0,29.97,SE,135,4.0,25.0,31,0.00,,,0.00,Weather View 32 v70,2013-03-21 02:48:00,
2013-03-20 20:53:00,54.0,24.0,29.96,East,90,1.0,17.0,31,0.00,,,0.00,Weather View 32 v70,2013-03-21 02:53:00,
2013-03-20 20:58:00,54.0,24.0,29.96,East,90,0.0,17.0,31,0.00,,,0.00,Weather View 32 v70,2013-03-21 02:58:00,
2013-03-20 21:03:00,53.0,23.9,29.97,East,90,0.0,14.0,32,0.00,,,0.00,Weather View 32 v70,2013-03-21 03:03:00,
2013-03-20 21:08:00,53.0,24.6,29.97,East,90,4.0,13.0,33,0.00,,,0.00,Weather View 32 v70,2013-03-21 03:08:00,
2013-03-20 21:13:00,53.0,24.6,29.97,East,90,5.0,12.0,33,0.00,,,0.00,Weather View 32 v70,2013-03-21 03:13:00,
2013-03-20 21:18:00,53.0,24.6,29.97,East,90,5.0,12.0,33,0.00,,,0.00,Weather View 32 v70,2013-03-21 03:18:00,
2013-03-20 21:23:00,53.0,24.6,29.96,East,90,5.0,12.0,33,0.00,,,0.00,Weather View 32 v70,2013-03-21 03:23:00,
2013-03-20 21:28:00,53.0,24.6,29.96,East,90,6.0,12.0,33,0.00,,,0.00,Weather View 32 v70,2013-03-21 03:28:00,
2013-03-20 21:33:00,53.0,25.3,29.96,East,90,4.0,12.0,34,0.00,,,0.00,Weather View 32 v70,2013-03-21 03:33:00,
2013-03-20 21:38:00,52.0,24.4,29.96,East,90,5.0,10.0,34,0.00,,,0.00,Weather View 32 v70,2013-03-21 03:38:00,
2013-03-20 21:43:00,52.0,24.4,29.96,ESE,112,6.0,8.0,34,0.00,,,0.00,Weather View 32 v70,2013-03-21 03:43:00,
2013-03-20 21:48:00,52.0,24.4,29.96,East,90,4.0,8.0,34,0.00,,,0.00,Weather View 32 v70,2013-03-21 03:48:00,
2013-03-20 21:53:00,52.0,24.4,29.96,East,90,5.0,8.0,34,0.00,,,0.00,Weather View 32 v70,2013-03-21 03:53:00,
2013-03-20 21:58:00,52.0,25.1,29.96,East,90,6.0,10.0,35,0.00,,,0.00,Weather View 32 v70,2013-03-21 03:58:00,
2013-03-20 22:00:00,52.0,24.4,29.96,East,90,5.0,10.0,34,0.00,,,0.00,Weather View 32 v70,2013-03-21 04:00:00,
2013-03-20 22:05:00,52.0,25.1,29.96,East,90,7.0,10.0,35,0.00,,,0.00,Weather View 32 v70,2013-03-21 04:05:00,
2013-03-20 22:10:00,52.0,25.1,29.96,East,90,5.0,10.0,35,0.00,,,0.00,Weather View 32 v70,2013-03-21 04:10:00,
2013-03-20 22:15:00,52.0,25.8,29.96,East,90,8.0,10.0,36,0.00,,,0.00,Weather View 32 v70,2013-03-21 04:15:00,
2013-03-20 22:20:00,52.0,25.8,29.96,ENE,67,6.0,10.0,36,0.00,,,0.00,Weather View 32 v70,2013-03-21 04:20:00,
2013-03-20 22:25:00,51.0,24.9,29.96,East,90,8.0,10.0,36,0.00,,,0.00,Weather View 32 v70,2013-03-21 04:25:00,
2013-03-20 22:30:00,52.0,25.8,29.96,ESE,112,7.0,10.0,36,0.00,,,0.00,Weather View 32 v70,2013-03-21 04:30:00,
2013-03-20 22:35:00,51.0,25.6,29.96,SE,135,3.0,10.0,37,0.00,,,0.00,Weather View 32 v70,2013-03-21 04:35:00,
2013-03-20 22:40:00,51.0,25.6,29.96,NE,45,8.0,10.0,37,0.00,,,0.00,Weather View 32 v70,2013-03-21 04:40:00,
2013-03-20 22:45:00,51.0,26.2,29.96,ENE,67,9.0,12.0,38,0.00,,,0.00,Weather View 32 v70,2013-03-21 04:45:00,
2013-03-20 22:50:00,51.0,26.2,29.96,ENE,67,7.0,12.0,38,0.00,,,0.00,Weather View 32 v70,2013-03-21 04:50:00,
2013-03-20 22:57:00,51.0,26.2,29.96,ENE,67,9.0,13.0,38,0.00,,,0.00,Weather View 32 v70,2013-03-21 04:57:00,
2013-03-20 23:02:00,50.0,24.7,29.95,East,90,9.0,13.0,37,0.00,,,0.00,Weather View 32 v70,2013-03-21 05:02:00,
2013-03-20 23:07:00,50.0,25.3,29.95,ESE,112,0.0,13.0,38,0.00,,,0.00,Weather View 32 v70,2013-03-21 05:07:00,
2013-03-20 23:13:00,50.0,25.3,29.95,ENE,67,11.0,16.0,38,0.00,,,0.00,Weather View 32 v70,2013-03-21 05:13:00,
2013-03-20 23:18:00,50.0,25.3,29.95,East,90,14.0,16.0,38,0.00,,,0.00,Weather View 32 v70,2013-03-21 05:18:00,
2013-03-20 23:24:00,50.0,26.0,29.94,East,90,10.0,16.0,39,0.00,,,0.00,Weather View 32 v70,2013-03-21 05:24:00,
2013-03-20 23:29:00,50.0,26.6,29.94,ENE,67,8.0,16.0,40,0.00,,,0.00,Weather View 32 v70,2013-03-21 05:29:00,
2013-03-20 23:34:00,50.0,26.6,29.94,NE,45,1.0,16.0,40,0.00,,,0.00,Weather View 32 v70,2013-03-21 05:34:00,
2013-03-20 23:39:00,50.0,26.6,29.94,NE,45,0.0,16.0,40,0.00,,,0.00,Weather View 32 v70,2013-03-21 05:39:00,
2013-03-20 23:44:00,49.0,26.3,29.94,NE,45,1.0,16.0,41,0.00,,,0.00,Weather View 32 v70,2013-03-21 05:44:00,
2013-03-20 23:49:00,49.0,26.3,29.94,NE,45,4.0,16.0,41,0.00,,,0.00,Weather View 32 v70,2013-03-21 05:49:00,
2013-03-20 23:54:00,49.0,26.9,29.94,NE,45,4.0,16.0,42,0.00,,,0.00,Weather View 32 v70,2013-03-21 05:54:00,
2013-03-20 23:59:00,49.0,26.9,29.94,NE,45,4.0,16.0,42,0.00,,,0.00,Weather View 32 v70,2013-03-21 05:59:00,